This demonstration page uses our WeatherBlox Daily Observations layout. Learn more.

Left ArrowRight Arrow

Hourly Observations for May 10, 2020

Temp ( °F °C ) Dew Point ( °F °C ) Humidity (%) Winds ( mph kmh ) Pressure ( in mb ) Visibility ( mi km ) Precip ( " mm )
12:51 am 00:51 Clear 78 25.6 40 4.4 26 26 E 8 13 29.81 1010 10 16.0934 0 0
1:51 am 01:51 Clear 76 24.4 40 4.4 27 27 Calm 29.81 1009 10 16.0934 0 0
2:51 am 02:51 Clear 71 21.7 37 2.8 29 29 Calm 29.82 1010 10 16.0934 0 0
3:51 am 03:51 Clear 71 21.7 37 2.8 29 29 VRB 3 6 29.83 1010 10 16.0934 0 0
4:51 am 04:51 Clear 70 21.1 38 3.3 31 31 E 3 6 29.85 1011 10 16.0934 0 0
5:51 am 05:51 Sunny 69 20.6 37 2.8 31 31 SSE 6 9 29.87 1011 10 16.0934 0 0
6:51 am 06:51 Sunny 77 25 39 3.9 26 26 E 6 9 29.87 1012 10 16.0934 0 0
7:51 am 07:51 Sunny 82 27.8 39 3.9 22 22 VRB 6 9 29.88 1012 10 16.0934 0 0
8:51 am 08:51 Sunny 84 28.9 40 4.4 21 21 S 5 7 29.88 1012 10 16.0934 0 0
9:51 am 09:51 Partly Cloudy 84 28.9 40 4.4 21 21 S 14 22 29.9 1013 10 16.0934 0 0
9:59 am 09:59 Mostly Cloudy with Nearby Thunderstorms 84 28.9 41 5 22 22 SSW 16 26 29.84 1011 10 16.0934 0 0
10:28 am 10:28 Mostly Cloudy 80 26.7 45 7.2 29 29 SSW 9 15 29.86 1011 10 16.0934 0 0
10:51 am 10:51 Cloudy 80 26.7 47 8.3 31 31 SW 9 15 29.91 1013 10 16.0934 0.001 0.001
11:51 am 11:51 Mostly Cloudy 82 27.8 42 5.6 24 24 SW 6 9 29.9 1013 10 16.0934 0 0
12:51 pm 12:51 Sunny 85 29.4 44 6.7 24 24 WSW 16 26 29.85 1011 10 16.0934 0 0
1:51 pm 13:51 Sunny 85 29.4 42 5.6 22 22 NW 12 19 29.84 1011 10 16.0934 0 0
2:51 pm 14:51 Sunny 89 31.7 41 5 19 19 N 13 20 29.82 1010 10 16.0934 0 0
3:51 pm 15:51 Partly Cloudy 88 31.1 39 3.9 18 18 W 9 15 29.8 1009 10 16.0934 0 0
4:51 pm 16:51 Mostly Cloudy 84 28.9 44 6.7 25 25 NE 18 30 29.81 1010 10 16.0934 0 0
5:51 pm 17:51 Mostly Cloudy 82 27.8 44 6.7 26 26 E 13 20 29.84 1010 10 16.0934 0 0
6:51 pm 18:51 Mostly Cloudy 78 25.6 49 9.4 36 36 S 18 30 29.87 1012 10 16.0934 0 0
7:11 pm 19:11 Mostly Cloudy with Light Rain 75 23.9 52 11.1 45 45 ESE 14 22 29.8 1009 10 16.0934 0.001 0.001
7:51 pm 19:51 Partly Cloudy 73 22.8 51 10.6 46 46 SSE 8 13 29.88 1012 10 16.0934 0.001 0.001
8:51 pm 20:51 Clear 72 22.2 50 10 46 46 SE 9 15 29.88 1012 10 16.0934 0 0
9:51 pm 21:51 Clear 70 21.1 49 9.4 47 47 ESE 8 13 29.91 1013 10 16.0934 0 0
10:51 pm 22:51 Clear 71 21.7 49 9.4 46 46 SE 8 13 29.89 1012 10 16.0934 0 0
11:51 pm 23:51 Clear 67 19.4 51 10.6 57 57 SE 7 11 29.89 1012 10 16.0934 0 0

Powered by AerisWeather